Flag for Brazil Weather past 2 weeks in Campo Grande, Mato Grosso Do Sul, Brazil

Now
90 °F

Sunny.


Feels Like: 86 °F
Forecast: 68 / 92 °F
Wind: 12 mph from North

Location: Campo Grande Aeroporto

Current Time: Aug 23, 2014 at 3:07:45 PM

Latest Report: Aug 23, 2014 at 2:00 PM


Visibility: 10 mi

Pressure: 29.89 "Hg

Humidity: 24%

Dew point: 48 °F

Location of Campo GrandeLocation

Historic Weather in Campo Grande — Graph

°F

Campo Grande temperature yesterday

Maximum temperature yesterday: 90 °F (at 11:00 AM)
Minimum temperature yesterday: 70 °F (at 12:00 AM)
Average temperature yesterday: 79 °F

Past Weeks' High & Low Weather Summary

 TemperatureHumidityPressure
High90 °F (Aug 22, 11:00 AM)100% (Aug 9, 6:00 AM)30.24 "Hg (Aug 9, 6:00 AM)
Low46 °F (Aug 13, 6:00 AM)23% (Aug 10, 11:00 AM)29.89 "Hg (Aug 23, 2:00 PM)
Average72 °F56%30.08 "Hg
* Reported Aug 8 2:00 PM — Aug 23 2:00 PM, Campo Grande, Weather by CustomWeather, © 2014

Note: Actual official high and low records may vary slightly from our data, if they occured in-between our weather recording intervals... More about our weather records

Advertising

Campo Grande weather history for previous 24 hours

 ConditionsComfort  
Time TempWeatherWind HumidityBarometerVisibility
2:00 PM
Aug 23
90 °FSunny.12 mph24%29.89 "Hg10 mi
1:00 PM90 °FPassing clouds.9 mph24%29.92 "HgN/A
12:00 PM90 °FSunny.13 mph27%29.95 "Hg10 mi
11:00 AM88 °FSunny.15 mph27%29.98 "Hg10 mi
10:00 AM88 °FSunny.13 mph27%30.01 "Hg10 mi
9:00 AM82 °FSunny.12 mph35%30.01 "Hg10 mi
8:00 AM77 °FSunny.13 mph39%29.98 "Hg10 mi
7:00 AM73 °FSunny.10 mph44%29.98 "Hg10 mi
6:00 AM68 °FSunny.9 mph53%29.95 "Hg10 mi
5:00 AM64 °FSunny.8 mph60%29.95 "Hg10 mi
4:00 AM64 °FClear.6 mph60%29.92 "Hg10 mi
3:00 AM68 °FClear.7 mph53%29.95 "Hg10 mi
2:00 AM66 °FClear.2 mph56%29.95 "Hg10 mi
1:00 AM72 °FClear.3 mph44%29.95 "Hg10 mi
12:00 AM68 °FClear.6 mph53%29.98 "Hg10 mi
11:00 PM
Aug 22
73 °FClear.6 mph44%29.98 "Hg10 mi
10:00 PM70 °FClear.6 mph53%29.98 "Hg10 mi
9:00 PM73 °FClear.5 mph47%29.98 "Hg10 mi
8:00 PM77 °FClear.7 mph39%29.98 "Hg10 mi
7:00 PM77 °FClear.3 mph39%29.95 "Hg10 mi
6:00 PM82 °FClear.6 mph35%29.95 "Hg10 mi
5:00 PM86 °FClear.8 mph29%29.92 "Hg10 mi
4:00 PM90 °FSunny.6 mph26%29.92 "Hg10 mi
3:00 PM90 °FSunny.8 mph27%29.92 "Hg10 mi
Weather by CustomWeather, © 2014

See weather overviewHow to use our weather pages